Find Intelsat IS-33e

NORAD ID: 41748 Int'l Des: 2016-053 Owner: INTELU Country: US operational
HEOCIRCULAR

Aktuelle Ansicht

3D-Globus wird geladen...

Über Intelsat IS-33e

Beschreibung wird geladen...

Nächste Überflüge

Passes for default location (London). Set your location on the main map for personalized predictions.

Höhenverlauf

Loading altitude history...

Zweizeiliger Elementsatz

1 41748U 16053B 26151.51180483 .00000120 00000-0 00000+0 0 9996
2 41748 1.5330 84.4504 0022746 191.4124 210.7438 1.00173485 36087
Epoch: 31. Mai 2026 • Age: 10 hours

Aktueller Status

Höhe 35717.4 km
Geschwindigkeit 3.08 km/s
Subsatellitenpunkt -0.30°S, 53.19°E
Startdatum 24. Aug. 2016
Alter 9.7 years
Typ communications

Technische Details

Klassifizierung Payload
Masse 6552.00 kg
Trockenmasse 2946.00 kg
Gesamtmasse 6552.00 kg
Länge 7.50 m
Durchmesser 3.00 m
Spannweite 44.00 m
Form Box + 2 panels
Hersteller BOES
Bus-Typ BSS-702MP
Phasenstatus In Orbit
Besitzer/Staat INTELU/US

Most Searched